Saturday, October 25, 2014
19:49 UTC
  |  Log In   |  Register Free
Airport Search:

South Big Horn County Airport
(KGEY)

South Big Horn County Airport Diagram
No Airport Diagram Available

FAA data valid effective September 18, 2014 - November 13, 2014 (unless otherwise noted).

 
 
 
 
 
 
 
 
 
 
 
 
 
 

Current Aviation Weather for South Big Horn County Airport (KGEY)

The most recent METAR observation for KGEY was updated at: 1911
METAR Summary (Translated METAR)
KGEY
251853Z AUTO 00000KT 10SM CLR 18/00 A2996 RMK AO2 SLP136 T01780000
KU68
251855Z AUTO 12003KT 10SM CLR 17/00 A2997 RMK AO2 PWINO
(28.3 nm NW from KGEY)
KWRL
251853Z AUTO 00000KT 10SM CLR 23/M01 A2997 RMK AO2 SLP125 T02281011
(33.8 nm SE from KGEY)
TAF Summary (Translated TAF)
KWRL
(33.8 nm SE from KGEY)
251735Z 2518/2618 VRB04KT P6SM SKC FM252100 15009KT P6SM SKC
  Airport Weather Conditions for KGEY

Current weather conditions are
not available for GEY


The nearest NOAA weather station
is at U68, (28.3 nm NW from GEY)
  
 Current Weather at U68
61° F
Fair
North winds at 0.0 mph
U68 NOAA Radar

Pressure: 29.99 in
Humidity: 34%
Wind: Calm
Dew Point: 32.0°F
Visibility: 10.00 mi


Airport Weather Forecast for KGEY

Translated METAR and TAF for KGEY
Translated METAR for KGEY (1944 UTC 25 October 2014)
found at http://aviationweather.gov/adds/metars/
 
METAR text: KGEY 251853Z AUTO 00000KT 10SM CLR 18/00 A2996 RMK AO2 SLP136 T01780000
Conditions at: KGEY (GREYBULL , WY, US) observed 1853 UTC 25 October 2014
Temperature: 17.8°C (64°F)
Dewpoint: 0.0°C (32°F) [RH = 30%]
Pressure (altimeter): 29.96 inches Hg (1014.6 mb)
[Sea-level pressure: 1013.6 mb]
Winds: calm
Visibility: 10 or more miles (16+ km)
Ceiling: at least 12,000 feet AGL
Clouds: sky clear below 12,000 feet AGL
Weather: automated observation with no human augmentation;
there may or may not be significant weather present at this time
Translated TAF for KGEY

There is no translated TAF available for this airport

Find All Airport Services Find A Hotel Find A Rental Car Find A Golf Course Find A Restaurant $100 Hamburger



FBO's on the Field
FBO Company Facility Photos Services Transportation Aviation Fuel Prices: Prices include tax
Catering Weather Repair Courtesy Rental Type 100LL JetA JetA+ MOGAS 8087
 
B & G Industries, LLC

This FBO has not yet been rated
FS:Independent
Last Updated: Oct-16
Login to update fuel prices
SS:
Contact B & G Industries, LLCMore FBO Information
 
South Big Horn County Airport

This FBO has not yet been rated
FS:Independent
Last Updated: Oct-23
Login to update fuel prices
SS:
Contact South Big Horn County AirportMore FBO Information
 
Add another FBO Facility Photos Catering Weather Repair Courtesy Rental Type 100LL JetA JetA+ MOGAS 8087
Services Transportation Aviation Fuel Prices: Prices include tax


model-print
model-print
model-print
model-print